"Pseudo-MPEC" for W07697

Created 2023 Nov 26 16:22:11 UT using Find_Orb

Click here for an explanation of pseudo-MPECs

 
 Astrometry: 
     W07697 * C2023 11 18VX3Astrometrys1q^1j]KnuP@dh9^S+hredacted;/#=click]jtO18
     W07697   C2023 11 18\H-/YXmDIPJq%4F?9here#/EE=%wlyYn-BMeirhtv`foryPtyoP9O18
     W07697   C2023 11 18M_8rX:iZ?fsytA!EeM4_IN^8oR+BkwoI78)1%c*X7explanationO18

Station data:
(O18) WFST, Lenghu  (N38.607601 E93.895220).

Orbital elements:  W07697
   Perihelion 2024 Mar 6.82455 +/- 87.8 TT = 19:47:20 (JD 2460376.32455)
Epoch 2023 Nov 19.0 TT = JDT 2460267.5   Earth MOID: 0.1092      AutoNEOCP
M 303.61523900 +/- 43               (J2000 ecliptic)
n   0.51812539 +/- 0.34             Peri.  101.30748 +/- 100
a   1.53525127 +/- 0.671            Node    65.43817 +/- 29
e   0.4313665 +/- 0.281             Incl.   29.88837 +/- 21
P   1.90/694.80d           H 21.59  G  0.15   U 12.0  SR
q 0.87299522 +/- 0.469    Q 2.19750731 +/- 29.7
From 3 observations 2023 Nov. 18 (18.5 min); mean residual 0".07
Residuals in arcseconds: 
231118 O18  .06+  .05-    231118 O18  .11-  .09+    231118 O18  .05+  .05-    

Ephemerides (geocentric):
Date (UTC) HH   RA             Dec           delta  r     elong  mag " sig PA
---- --------  ------------   ------------  ------ ------ -----  --- --------
2023 11 26 16  04 15 55.070   +18 54 15.14  .39340 1.3800 177.1 20.5  41d  99
2023 11 26 17  04 15 45.355   +18 56 20.52  .39312 1.3797 177.2 20.5  41d  99
2023 11 26 18  04 15 35.622   +18 58 26.05  .39284 1.3794 177.3 20.5  41d  99
2023 11 26 19  04 15 25.871   +19 00 31.73  .39256 1.3792 177.4 20.5  41d  99
2023 11 26 20  04 15 16.102   +19 02 37.56  .39228 1.3789 177.4 20.5  41d  99
2023 11 26 21  04 15 06.314   +19 04 43.55  .39200 1.3786 177.5 20.5  41d  99
2023 11 26 22  04 14 56.507   +19 06 49.69  .39172 1.3784 177.6 20.5  41d  99
2023 11 26 23  04 14 46.682   +19 08 55.98  .39145 1.3781 177.7 20.5  41d  99
2023 11 27 00  04 14 36.839   +19 11 02.43  .39117 1.3778 177.7 20.5  41d  99
2023 11 27 01  04 14 26.978   +19 13 09.02  .39089 1.3775 177.8 20.4  41d  99
2023 11 27 02  04 14 17.098   +19 15 15.77  .39062 1.3773 177.9 20.4  41d  99
2023 11 27 03  04 14 07.199   +19 17 22.66  .39034 1.3770 177.9 20.4  41d  99
2023 11 27 04  04 13 57.282   +19 19 29.71  .39007 1.3767 178.0 20.4  41d  99
2023 11 27 05  04 13 47.347   +19 21 36.91  .38979 1.3765 178.1 20.4  41d  99
2023 11 27 06  04 13 37.393   +19 23 44.25  .38952 1.3762 178.1 20.4  41d  99
2023 11 27 07  04 13 27.421   +19 25 51.75  .38925 1.3759 178.2 20.4  41d  99
2023 11 27 08  04 13 17.430   +19 27 59.40  .38898 1.3757 178.3 20.4  41d  99
2023 11 27 09  04 13 07.420   +19 30 07.19  .38870 1.3754 178.3 20.4  41d  99
2023 11 27 10  04 12 57.392   +19 32 15.13  .38843 1.3751 178.4 20.4  41d  99
2023 11 27 11  04 12 47.346   +19 34 23.23  .38816 1.3748 178.4 20.4  41d  99
2023 11 27 12  04 12 37.281   +19 36 31.46  .38789 1.3746 178.5 20.4  41d  99
2023 11 27 13  04 12 27.197   +19 38 39.85  .38762 1.3743 178.5 20.4  42d  99
2023 11 27 14  04 12 17.095   +19 40 48.39  .38736 1.3740 178.6 20.4  42d  99
2023 11 27 15  04 12 06.974   +19 42 57.07  .38709 1.3738 178.6 20.4  42d  99
2023 11 27 16  04 11 56.835   +19 45 05.90  .38682 1.3735 178.7 20.4  42d  99
2023 11 27 17  04 11 46.677   +19 47 14.87  .38655 1.3732 178.7 20.4  42d  99
2023 11 27 18  04 11 36.501   +19 49 23.99  .38629 1.3729 178.7 20.4  42d  99
2023 11 27 19  04 11 26.305   +19 51 33.26  .38602 1.3727 178.7 20.4  42d  99
2023 11 27 20  04 11 16.092   +19 53 42.67  .38576 1.3724 178.8 20.3  42d  99
2023 11 27 21  04 11 05.859   +19 55 52.22  .38549 1.3721 178.8 20.3  42d  99
2023 11 27 22  04 10 55.608   +19 58 01.92  .38523 1.3719 178.8 20.3  42d  99
2023 11 27 23  04 10 45.338   +20 00 11.77  .38496 1.3716 178.8 20.3  42d  99
2023 11 28 00  04 10 35.050   +20 02 21.76  .38470 1.3713 178.8 20.3  42d  99
2023 11 28 01  04 10 24.742   +20 04 31.89  .38444 1.3711 178.8 20.3  42d  99
2023 11 28 02  04 10 14.417   +20 06 42.17  .38418 1.3708 178.7 20.3  42d  99
2023 11 28 03  04 10 04.072   +20 08 52.58  .38392 1.3705 178.7 20.3  42d  99
2023 11 28 04  04 09 53.709   +20 11 03.14  .38366 1.3702 178.7 20.3  42d  99
2023 11 28 05  04 09 43.327   +20 13 13.85  .38340 1.3700 178.6 20.3  42d  99
2023 11 28 06  04 09 32.926   +20 15 24.69  .38314 1.3697 178.6 20.3  42d  99
2023 11 28 07  04 09 22.507   +20 17 35.68  .38288 1.3694 178.6 20.3  42d  99
2023 11 28 08  04 09 12.069   +20 19 46.80  .38262 1.3692 178.5 20.3  42d  99
2023 11 28 09  04 09 01.612   +20 21 58.07  .38236 1.3689 178.5 20.3  42d  99
2023 11 28 10  04 08 51.136   +20 24 09.47  .38211 1.3686 178.4 20.3  42d  99
2023 11 28 11  04 08 40.641   +20 26 21.02  .38185 1.3683 178.4 20.3  42d  99
2023 11 28 12  04 08 30.128   +20 28 32.71  .38160 1.3681 178.3 20.3  42d  99
2023 11 28 13  04 08 19.596   +20 30 44.53  .38134 1.3678 178.2 20.4  42d 100
2023 11 28 14  04 08 09.045   +20 32 56.49  .38109 1.3675 178.2 20.4  42d 100
2023 11 28 15  04 07 58.476   +20 35 08.59  .38083 1.3673 178.1 20.4  42d 100